{"data":{"norad_id":46715,"epoch":"2026-05-25T02:57:18.425088Z","epoch_age_seconds":75072,"freshness":"FRESH","line1":"1 46715U 20073AX  26145.12312992  .00105755  00000+0  64756-3 0  9995","line2":"2 46715  53.0439 199.7326 0003463  21.0228 339.0934 15.76529767309476","mean_motion":15.76529767,"eccentricity":0.0003463,"inclination_deg":53.0439,"raan_deg":199.7326,"arg_perigee_deg":21.0228,"mean_anomaly_deg":339.0934,"bstar":0.00064756,"rev_number":30947,"period_min":91.339854796411,"perigee_km":337.95498374565,"apogee_km":342.60816044868,"semimajor_km":6718.4185720972,"source":"CELESTRAK","updated_at":"2026-05-25T13:38:16.517713Z"}}